Weather History for KSUS - April, 2013

Change the Weather History Date:

Monday, April 1, 2013

  Actual Average Record
Temperature  
Mean Temperature 42 °F -  
Max Temperature 50 °F 61 °F 90 °F (2012)
Min Temperature 32 °F 38 °F 28 °F (2001)
Degree Days  
Heating Degree Days 24    
Moisture  
Dew Point 23 °F    
Average Humidity 48    
Maximum Humidity 75    
Minimum Humidity 27    
Precipitation  
Precipitation 0.00 in - - ()
Sea Level Pressure  
Sea Level Pressure 30.16 in    
Wind  
Wind Speed 8 mph (North)    
Max Wind Speed 15 mph    
Max Gust Speed 18 mph    
Visibility 10 miles    
Events      
Averages and records for this station are not official NWS values.
T = Trace of Precipitation, MM = Missing Value Source: NWS Daily Summary

Daily Weather History Graph

Daily Weather History Graph

Search for Another Location

Airport or City:

Trip Planner

Search our weather history database for the weather conditions in past years. The results will help you decide how hot, cold, wet, or windy it might be!

Date:

Astronomy

Apr. 01, 2013 Rise Set
Actual Time 6:47 AM CDT 7:26 PM CDT
Civil Twilight 6:20 AM CDT 7:53 PM CDT
Nautical Twilight 5:48 AM CDT 8:24 PM CDT
Astronomical Twilight 5:16 AM CDT 8:57 PM CDT
Moon 12:31 AM CDT (4/1) 10:36 AM CDT (4/1)
Length of Visible Light 13h 32m
Length of Day
12h 39m
Waning Gibbous, 67% of the Moon is Illuminated
Apr 1
Waning Gibbous
Apr 2
Last Quarter
Apr 10
New
Apr 18
First Quarter
Apr 25
Full

Hourly Weather History & Observations

Time (CDT) Temp. Windchill Dew Point Humidity Pressure Visibility Wind Dir Wind Speed Gust Speed Precip Events Conditions
12:54 AM 48.9 °F - 30.0 °F 48% 29.97 in 10.0 mi North 6.9 mph - N/A   Clear
1:54 AM 45.0 °F 41.2 °F 30.9 °F 58% 30.00 in 10.0 mi NNE 6.9 mph - N/A   Partly Cloudy
2:54 AM 44.1 °F 38.1 °F 28.0 °F 53% 30.02 in 10.0 mi North 11.5 mph - N/A   Scattered Clouds
3:54 AM 43.0 °F 39.5 °F 28.0 °F 56% 30.04 in 10.0 mi North 5.8 mph - N/A   Overcast
4:54 AM 41.0 °F 35.2 °F 28.0 °F 60% 30.06 in 10.0 mi NE 9.2 mph - N/A   Overcast
5:54 AM 41.0 °F 35.2 °F 23.0 °F 49% 30.11 in 10.0 mi North 9.2 mph - N/A   Overcast
6:54 AM 39.9 °F 35.8 °F 24.1 °F 53% 30.14 in 10.0 mi North 5.8 mph - N/A   Overcast
7:54 AM 39.0 °F 31.8 °F 24.1 °F 55% 30.17 in 10.0 mi NNW 11.5 mph - N/A   Overcast
8:54 AM 37.9 °F 32.1 °F 26.1 °F 62% 30.19 in 10.0 mi North 8.1 mph - N/A   Overcast
9:54 AM 39.9 °F 32.9 °F 24.1 °F 53% 30.21 in 10.0 mi North 11.5 mph - N/A   Mostly Cloudy
10:54 AM 42.1 °F 40.2 °F 25.0 °F 51% 30.22 in 10.0 mi NNE 3.5 mph - N/A   Scattered Clouds
11:54 AM 44.1 °F 39.0 °F 24.1 °F 45% 30.22 in 10.0 mi NW 9.2 mph - N/A   Clear
12:54 PM 46.9 °F - 19.0 °F 33% 30.21 in 10.0 mi North 10.4 mph 16.1 mph N/A   Scattered Clouds
1:54 PM 48.0 °F - 21.0 °F 34% 30.21 in 10.0 mi NW 9.2 mph - N/A   Scattered Clouds
2:54 PM 50.0 °F - 19.9 °F 31% 30.20 in 10.0 mi NNW 15.0 mph 18.4 mph N/A   Partly Cloudy
3:54 PM 48.9 °F - 18.0 °F 29% 30.20 in 10.0 mi NNW 10.4 mph - N/A   Partly Cloudy
4:54 PM 48.9 °F - 18.0 °F 29% 30.20 in 10.0 mi NNW 13.8 mph - N/A   Partly Cloudy
5:54 PM 48.0 °F - 15.1 °F 27% 30.20 in 10.0 mi North 10.4 mph - N/A   Clear
6:54 PM 46.0 °F 41.9 °F 19.0 °F 34% 30.20 in 10.0 mi North 8.1 mph - N/A   Scattered Clouds
7:54 PM 41.0 °F 36.4 °F 21.0 °F 45% 30.21 in 10.0 mi NW 6.9 mph - N/A   Scattered Clouds
8:54 PM 39.9 °F 36.7 °F 21.0 °F 47% 30.22 in 10.0 mi NW 4.6 mph - N/A   Clear
9:54 PM 34.0 °F - 24.1 °F 67% 30.23 in 10.0 mi Calm Calm - N/A   Clear
10:54 PM 33.1 °F - 26.1 °F 75% 30.25 in 10.0 mi Calm Calm - N/A   Clear
11:54 PM 32.0 °F - 23.0 °F 69% 30.27 in 10.0 mi Calm Calm - N/A   Clear